When you browse on this site, cookies collect data to enhance your experience and personalize the content and advertising you see.
Visit our Privacy Policy to learn more. By continuing to use the site, you agree to this use of cookies and data.
  • în România
  • Lista ţărilor
  • Pe 7 zile
  • Temperatura apei
  • Meteo pe hartă
  • Widget-uri
  • user-avatar
    Intrare

    Meteo pe oră la Stepanakert

    Astăzi, 17 Februarie, Luni

    Timp Temperatura Precipitaţii Vânt Presiune Umiditate
    00:00 +1°C° 0 mm 0 m/s 700 mmHg 82%
    01:00 +1°C° 0.3 mm 1 m/s 700 mmHg 86%
    02:00 +1°C° 0.3 mm 1 m/s 700 mmHg 89%
    03:00 +1°C° 0 mm 1 m/s 700 mmHg 94%
    04:00 +1°C° 0.8 mm 1 m/s 700 mmHg 95%
    05:00 +1°C° 0.8 mm 1 m/s 700 mmHg 96%
    06:00 -1°C° 0.8 mm 2 m/s 700 mmHg 96%
    07:00 -1°C° 0.3 mm 2 m/s 700 mmHg 94%
    08:00 -1°C° 0.3 mm 2 m/s 701 mmHg 92%
    09:00 -1°C° 0 mm 2 m/s 701 mmHg 91%
    10:00 -1°C° 0.3 mm 2 m/s 701 mmHg 90%
    11:00 -1°C° 0.3 mm 2 m/s 701 mmHg 89%
    12:00 +1°C° 0.3 mm 2 m/s 701 mmHg 89%
    13:00 +1°C° 0.2 mm 2 m/s 701 mmHg 88%
    14:00 +1°C° 0.2 mm 2 m/s 700 mmHg 87%
    15:00 +1°C° 0 mm 2 m/s 700 mmHg 85%
    16:00 +2°C° 0.1 mm 1 m/s 701 mmHg 86%
    17:00 +1°C° 0.1 mm 1 m/s 701 mmHg 88%
    18:00 +1°C° 0.1 mm 1 m/s 701 mmHg 90%
    19:00 0°C° 0 mm 1 m/s 701 mmHg 88%
    20:00 0°C° 0 mm 1 m/s 701 mmHg 87%
    21:00 0°C° 0 mm 1 m/s 702 mmHg 86%
    22:00 0°C° 0 mm 1 m/s 701 mmHg 85%
    23:00 -1°C° 0 mm 1 m/s 701 mmHg 83%

    Mâine, 18 Februarie, Marţi

    Timp Temperatura Precipitaţii Vânt Presiune Umiditate
    00:00 -1°C° 0 mm 1 m/s 701 mmHg 82%
    01:00 -1°C° 0 mm 1 m/s 701 mmHg 80%
    02:00 -1°C° 0 mm 1 m/s 701 mmHg 79%
    03:00 -1°C° 0 mm 1 m/s 701 mmHg 78%
    04:00 -1°C° 0 mm 1 m/s 701 mmHg 77%
    05:00 -1°C° 0 mm 1 m/s 701 mmHg 76%
    06:00 -2°C° 0 mm 0 m/s 701 mmHg 75%
    07:00 -1°C° 0 mm 0 m/s 701 mmHg 73%
    08:00 0°C° 0 mm 0 m/s 701 mmHg 71%
    09:00 +2°C° 0 mm 0 m/s 701 mmHg 69%
    10:00 +3°C° 0 mm 1 m/s 701 mmHg 71%
    11:00 +4°C° 0 mm 1 m/s 701 mmHg 72%
    12:00 +5°C° 0 mm 1 m/s 700 mmHg 73%
    13:00 +5°C° 0 mm 1 m/s 700 mmHg 74%
    14:00 +5°C° 0 mm 1 m/s 700 mmHg 75%
    15:00 +5°C° 0 mm 1 m/s 699 mmHg 75%
    16:00 +4°C° 0 mm 1 m/s 699 mmHg 79%
    17:00 +3°C° 0 mm 1 m/s 699 mmHg 82%
    18:00 +1°C° 0 mm 0 m/s 698 mmHg 86%
    19:00 +1°C° 0 mm 0 m/s 698 mmHg 85%
    20:00 +1°C° 0 mm 0 m/s 699 mmHg 83%
    21:00 +1°C° 0 mm 0 m/s 699 mmHg 82%
    22:00 +1°C° 0 mm 0 m/s 698 mmHg 81%
    23:00 +1°C° 0 mm 0 m/s 698 mmHg 80%

    Poimâine, 19 Februarie, Miercuri

    Timp Temperatura Precipitaţii Vânt Presiune Umiditate
    00:00 +1°C° 0 mm 0 m/s 697 mmHg 79%
    01:00 +1°C° 0 mm 0 m/s 697 mmHg 78%
    02:00 +1°C° 0 mm 0 m/s 697 mmHg 77%
    03:00 +1°C° 0 mm 0 m/s 697 mmHg 76%
    04:00 +2°C° 0 mm 1 m/s 696 mmHg 74%
    05:00 +2°C° 0 mm 1 m/s 696 mmHg 72%
    06:00 +3°C° 0 mm 1 m/s 695 mmHg 70%
    07:00 +4°C° 0 mm 1 m/s 695 mmHg 68%
    08:00 +4°C° 0 mm 0 m/s 695 mmHg 65%
    09:00 +5°C° 0 mm 0 m/s 695 mmHg 63%
    10:00 +6°C° 0 mm 0 m/s 695 mmHg 63%
    11:00 +7°C° 0 mm 1 m/s 694 mmHg 63%
    12:00 +8°C° 0 mm 1 m/s 694 mmHg 63%
    13:00 +8°C° 0 mm 1 m/s 693 mmHg 65%
    14:00 +8°C° 0 mm 1 m/s 693 mmHg 67%
    15:00 +8°C° 0 mm 1 m/s 692 mmHg 70%
    16:00 +7°C° 0 mm 1 m/s 692 mmHg 73%
    17:00 +5°C° 0 mm 0 m/s 692 mmHg 76%
    18:00 +5°C° 0 mm 0 m/s 691 mmHg 80%
    19:00 +5°C° 0 mm 1 m/s 691 mmHg 79%
    20:00 +5°C° 0 mm 1 m/s 691 mmHg 79%
    21:00 +5°C° 0 mm 1 m/s 691 mmHg 78%
    22:00 +5°C° 0 mm 1 m/s 691 mmHg 78%
    23:00 +3°C° 0 mm 0 m/s 690 mmHg 78%

    20 Februarie, Joi

    Timp Temperatura Precipitaţii Vânt Presiune Umiditate
    00:00 +3°C° 0 mm 0 m/s 690 mmHg 78%
    01:00 +3°C° 0 mm 0 m/s 690 mmHg 77%
    02:00 +3°C° 0 mm 0 m/s 690 mmHg 76%
    03:00 +4°C° 0 mm 0 m/s 690 mmHg 75%
    04:00 +4°C° 0 mm 0 m/s 689 mmHg 76%
    05:00 +4°C° 0 mm 0 m/s 689 mmHg 77%
    06:00 +4°C° 0 mm 0 m/s 689 mmHg 78%
    07:00 +4°C° 0 mm 0 m/s 689 mmHg 78%
    08:00 +4°C° 0 mm 0 m/s 689 mmHg 78%
    09:00 +5°C° 0 mm 0 m/s 689 mmHg 78%
    10:00 +5°C° 0.1 mm 0 m/s 689 mmHg 79%
    11:00 +5°C° 0.1 mm 0 m/s 689 mmHg 80%
    12:00 +6°C° 0.1 mm 1 m/s 689 mmHg 82%
    13:00 +7°C° 0 mm 1 m/s 688 mmHg 82%
    14:00 +7°C° 0 mm 1 m/s 688 mmHg 83%
    15:00 +7°C° 0 mm 1 m/s 688 mmHg 83%
    16:00 +6°C° 0 mm 1 m/s 688 mmHg 86%
    17:00 +6°C° 0 mm 1 m/s 688 mmHg 89%
    18:00 +4°C° 0 mm 0 m/s 688 mmHg 92%
    19:00 +4°C° 0 mm 0 m/s 688 mmHg 92%
    20:00 +4°C° 0 mm 0 m/s 688 mmHg 91%
    21:00 +4°C° 0 mm 0 m/s 689 mmHg 91%
    22:00 +4°C° 0 mm 0 m/s 689 mmHg 92%
    23:00 +4°C° 0 mm 0 m/s 689 mmHg 92%

    21 Februarie, Vineri

    Timp Temperatura Precipitaţii Vânt Presiune Umiditate
    00:00 +4°C° 0 mm 0 m/s 689 mmHg 92%
    01:00 +4°C° 0 mm 0 m/s 689 mmHg 91%
    02:00 +4°C° 0 mm 0 m/s 689 mmHg 91%
    03:00 +4°C° 0 mm 0 m/s 688 mmHg 90%
    04:00 +3°C° 0 mm 0 m/s 689 mmHg 90%
    05:00 +3°C° 0 mm 0 m/s 689 mmHg 89%
    06:00 +3°C° 0 mm 0 m/s 689 mmHg 88%
    07:00 +4°C° 0 mm 0 m/s 690 mmHg 85%
    08:00 +5°C° 0 mm 0 m/s 690 mmHg 81%
    09:00 +6°C° 0 mm 0 m/s 690 mmHg 77%
    16:00 +9°C° 0 mm 1 m/s 690 mmHg 79%
    17:00 +8°C° 0 mm 1 m/s 690 mmHg 82%
    18:00 +7°C° 0 mm 1 m/s 691 mmHg 86%
    19:00 +7°C° 0 mm 1 m/s 691 mmHg 87%
    20:00 +6°C° 0 mm 1 m/s 691 mmHg 87%
    21:00 +6°C° 0 mm 1 m/s 691 mmHg 87%
    22:00 +5°C° 0 mm 0 m/s 691 mmHg 88%
    23:00 +4°C° 0 mm 0 m/s 691 mmHg 89%

    22 Februarie, Sâmbătă

    Timp Temperatura Precipitaţii Vânt Presiune Umiditate
    00:00 +4°C° 0 mm 0 m/s 691 mmHg 90%
    01:00 +4°C° 0 mm 0 m/s 691 mmHg 90%
    02:00 +4°C° 0 mm 0 m/s 691 mmHg 89%
    03:00 +4°C° 0 mm 0 m/s 691 mmHg 89%
    04:00 +4°C° 0 mm 0 m/s 692 mmHg 89%
    05:00 +4°C° 0 mm 0 m/s 692 mmHg 88%
    06:00 +4°C° 0 mm 0 m/s 692 mmHg 88%
    07:00 +4°C° 0 mm 0 m/s 692 mmHg 87%
    08:00 +5°C° 0 mm 1 m/s 692 mmHg 86%
    09:00 +6°C° 0 mm 1 m/s 693 mmHg 86%
    10:00 +6°C° 0 mm 1 m/s 693 mmHg 86%
    11:00 +7°C° 0 mm 1 m/s 693 mmHg 87%
    12:00 +7°C° 0 mm 1 m/s 693 mmHg 88%
    13:00 +7°C° 0 mm 1 m/s 692 mmHg 89%
    14:00 +7°C° 0 mm 1 m/s 692 mmHg 91%
    15:00 +7°C° 0 mm 1 m/s 691 mmHg 92%
    16:00 +6°C° 0 mm 1 m/s 691 mmHg 94%
    17:00 +6°C° 0 mm 1 m/s 692 mmHg 95%
    18:00 +6°C° 0 mm 1 m/s 692 mmHg 97%
    19:00 +5°C° 0 mm 1 m/s 692 mmHg 97%
    20:00 +5°C° 0 mm 1 m/s 692 mmHg 97%
    21:00 +5°C° 0 mm 1 m/s 692 mmHg 97%
    22:00 +4°C° 0 mm 0 m/s 692 mmHg 97%
    23:00 +4°C° 0 mm 0 m/s 692 mmHg 97%
    Arată mai mult